Location: ???????
(55.9128°N, 37.3858°E)
Time: 14:29:55
(UTC+00:00)

Daily predictions for brighter satellites

Satellite Brightness Start Highest point End
(mag) Time Altitude Azimuth Time Altitude Azimuth Time Altitude Azimuth
S3M 4.0 19:12:21 10° S 19:18:27 78° E 19:24:40 10° NNE
Cosmos 1110 Rocket 4.3 19:14:13 10° NNW 19:19:24 63° ENE 19:24:31 10° SE
Cosmos 1933 Rocket 4.2 19:15:37 10° N 19:19:47 44° ENE 19:23:55 10° SE
Helios 1B rocket 3.8 19:18:17 10° ESE 19:21:02 23° ENE 19:23:48 10° N
NOSS 3-2 (C) 3.6 19:15:57 10° WSW 19:21:18 79° NW 19:27:57 10° NE
Cosmos 1709 Rocket 4.3 19:15:50 10° NNW 19:22:13 77° W 19:28:35 10° S
Cosmos 1953 3.4 19:18:56 10° NNW 19:22:14 35° W 19:25:29 10° SSW
GP-B 3.6 19:18:10 10° N 19:22:29 60° W 19:26:47 10° SSW
Cosmos 1328 Rocket 3.5 19:19:09 10° S 19:23:29 84° ESE 19:27:50 10° NNE
Cosmos 1371 Rocket 4.2 19:19:00 10° NNW 19:24:14 68° WSW 19:29:23 10° SSE
Cosmos 2082 Rocket 2.3 19:20:02 10° NW 19:25:43 87° WSW 19:31:21 10° SSE
NOSS 2-1 (C) 4.0 19:24:03 10° S 19:26:56 23° SE 19:29:29 10° ENE
Okean 3 4.5 19:23:57 10° SSE 19:27:23 28° E 19:30:53 10° NNE
Cosmos 1452 Rocket 4.1 19:24:23 10° NNW 19:29:35 54° NE 19:34:45 10° SE
Cosmos 1441 Rocket 4.4 19:28:07 10° SE 19:30:36 21° E 19:33:07 10° NE
CENTAUR R/B 4.0 19:24:06 10° WNW 19:30:37 49° N 19:38:43 10° ENE
Cosmos 1812 2.3 19:32:02 10° NNE 19:33:30 23° ENE 19:34:54 11° SE
Cosmos 2278 Rocket 2.5 19:28:30 10° S 19:33:56 51° ESE 19:39:25 10° NE
Cosmos 494 Rocket 4.2 19:31:30 10° S 19:36:36 56° ESE 19:41:45 10° NE
CZ-2C R/B 2.5 19:34:39 10° S 19:37:19 49° WSW 19:40:00 10° NNW
USA 238 DEB 3.7 19:31:27 10° SSW 19:37:30 57° SE 19:44:13 10° NE
USA 238 3.7 19:31:41 10° SSW 19:37:43 56° SE 19:44:26 10° NE
Meteor 1-21 4.3 19:32:46 10° S 19:38:24 81° ESE 19:44:08 10° NNE
Helios 1A 3.9 19:37:47 10° NNE 19:41:21 31° E 19:44:54 10° SSE
Cosmos 1331 Rocket 4.0 19:38:41 10° NNW 19:43:52 85° ENE 19:49:03 10° SSE
Cosmos 1943 Rocket 2.2 19:40:28 10° SSW 19:46:05 74° ESE 19:51:43 10° NE
Cosmos 1869 Rocket 3.7 19:47:48 10° N 19:52:07 64° ENE 19:56:19 11° SSE
Lacrosse 5 rocket 0.9 19:49:43 10° WSW 19:53:18 89° S 19:56:49 10° ENE
ARIANE 5 R/B 3.5 19:50:47 10° SE 19:54:57 42° ENE 19:59:08 10° N
CZ-2C R/B 4.2 19:55:23 10° ESE 19:59:42 27° NE 20:04:07 10° N
USA 81 4.1 19:58:04 10° N 20:03:23 88° E 20:08:36 10° S
Cosmos 1733 Rocket 3.9 20:00:04 10° N 20:04:07 39° ENE 20:08:09 10° SE
Cosmos 1515 Rocket 3.5 20:00:18 10° S 20:04:39 89° ENE 20:08:59 10° NNE
COSMOS 2406 3.3 20:01:57 10° NW 20:07:42 87° WSW 20:13:17 10° SSE
NOSS 7 (E) 4.2 20:05:24 10° NW 20:08:40 75° SW 20:11:47 10° SE
Cosmos 1048 Rocket 4.3 20:04:16 10° S 20:09:20 52° ESE 20:14:29 10° NE
Cosmos 1680 Rocket 3.7 20:04:31 10° SSW 20:09:44 79° WNW 20:14:59 10° NNE
ALOS 2 3.2 20:06:38 10° SE 20:10:52 50° ENE 20:15:09 10° N
Okean 2 3.7 20:08:55 10° SSW 20:12:43 60° WNW 20:16:34 10° N
Cosmos 2369 Rocket 3.8 20:09:00 10° SE 20:12:50 19° E 20:16:40 10° ENE
Cosmos 1400 Rocket 3.5 20:11:47 10° NNW 20:15:16 42° W 20:18:42 10° SSW
Cosmos 972 Rocket 4.3 20:11:25 10° NNW 20:17:11 73° ENE 20:22:12 11° SSE
IKONOS-2 4.4 20:16:31 10° NNE 20:20:40 82° ESE 20:24:44 10° SSW
USA 215 3.4 20:14:25 10° SE 20:20:52 61° SSW 20:27:22 10° WNW
USA 290 3.2 20:20:15 10° NNW 20:23:15 39° NE 20:26:13 10° SE
Cosmos 1656 Rocket 4.2 20:18:20 10° S 20:23:27 42° ESE 20:28:42 10° NE
ARIANE 6 FM1 Upper Stage 4.1 20:22:12 13° SSE 20:24:40 20° SE 20:27:44 10° ENE
Cosmos 1315 Rocket 3.8 20:21:40 10° N 20:25:13 36° ENE 20:28:45 10° SE
Cosmos 2074 Rocket 4.1 20:21:52 10° NNW 20:28:04 74° W 20:33:59 11° S
Cosmos 1302 Rocket 4.1 20:23:18 10° NNW 20:28:38 88° ENE 20:33:36 12° SSE
NOSS 2-1 (E) 2.7 20:28:34 10° SW 20:32:07 70° SE 20:35:10 10° NE
NOSS 3-1 (C) 4.1 20:34:30 13° S 20:37:53 27° ESE 20:42:31 10° ENE
PSLV R/B 4.4 20:33:33 10° NNE 20:37:59 41° E 20:41:46 13° SSE
Cosmos 2344 3.6 20:30:53 10° SW 20:38:20 83° NW 20:45:48 10° NE
Okean 1-7 3.7 20:35:56 13° SSE 20:39:18 39° E 20:43:16 10° NNE
Spot 4 3.9 20:38:57 13° SSE 20:43:15 79° WSW 20:48:07 10° NNW
USA 276 3.0 20:42:06 10° SW 20:44:03 19° SSE 20:46:08 10° ESE
Cosmos 220 Rocket 4.2 20:46:01 10° NNW 20:50:13 63° ENE 20:54:16 11° SE
USA 59 Rocket -0.2 20:47:42 10° WSW 20:50:51 57° NNW 20:53:45 10° NE
Cosmos 1328 3.4 20:48:02 14° S 20:51:00 79° E 20:54:32 10° NNE
Lacrosse 4 Rocket 1.5 20:48:29 10° NW 20:52:43 81° NE 20:56:55 10° SE
Helios 1B rocket 2.8 20:51:01 14° S 20:53:45 42° W 20:57:04 10° NNW
NOSS 2-1 (D) 3.2 20:52:27 10° WSW 20:55:43 62° NW 20:58:40 10° NE
Cosmos 2218 Rocket 4.4 20:50:18 10° N 20:56:36 60° ENE 21:02:35 11° SSE
Nadezhda 1 Rocket 4.0 20:51:27 12° S 20:57:13 81° E 21:03:32 10° NNE
Cosmos 1992 Rocket 4.0 20:52:51 10° NNW 20:58:05 89° ENE 21:02:55 12° SSE
COSMOS 2455 4.2 20:55:28 12° SSE 20:59:35 24° ESE 21:04:13 10° ENE
ATLAS 5 CENTAUR R/B 1.4 20:58:21 17° S 21:00:08 31° SE 21:03:00 10° ENE
Meteor 1-24 Rocket 4.3 20:59:01 13° S 21:04:11 54° E 21:10:03 10° NNE
Cosmos 1441 Rocket 4.2 21:01:20 10° SW 21:04:18 34° WNW 21:07:19 10° N
GEOS 3 Rocket 3.7 21:00:20 10° SE 21:05:40 70° SW 21:11:06 10° NW
ACS3 Solar Sail 2.7 21:03:25 10° NNE 21:08:31 33° E 21:13:26 11° SSE
Cosmos 2082 Rocket 3.9 21:05:01 10° NW 21:09:03 21° W 21:13:04 10° SSW
USA 308 3.0 21:07:45 13° SSW 21:10:01 32° SSE 21:13:38 10° E
NOSS 2-1 (C) 3.5 21:12:17 10° WSW 21:15:30 52° NNW 21:18:24 10° NE
Helios 1A 4.1 21:12:24 10° N 21:16:04 37° WNW 21:19:43 10° SW
NOSS 2-2 (D) 4.5 21:13:47 10° NW 21:16:48 38° NNE 21:20:27 10° E
Cosmos 2278 Rocket 3.3 21:12:43 10° WSW 21:18:09 45° NW 21:23:36 10° NNE
MetOp-A 3.2 21:15:10 15° SSE 21:18:18 89° ENE 21:22:06 10° NNW
Cosmos 1869 3.1 21:16:53 10° N 21:20:19 66° ENE 21:23:05 15° SSE
CENTAUR R/B 3.8 21:15:13 10° WNW 21:22:31 60° NNE 21:31:25 10° ESE
NOSS 2-2 (C) 3.5 21:20:04 10° NW 21:23:19 64° NNE 21:27:30 10° ESE
Cosmos 614 Rocket 4.0 21:18:34 10° SSW 21:23:39 78° WNW 21:28:44 10° NNE
SL-8 Rocket 4.0 21:18:01 10° NNW 21:24:12 85° W 21:29:41 14° S
SL-4 R/B 2.5 21:22:40 15° SSW 21:24:26 23° SSE 21:27:01 10° ESE
SL-12 R/B(2) 4.5 21:16:43 10° SSW 21:24:44 65° SE 21:34:41 10° NE
Meteor 2-5 Rocket 4.0 21:21:58 14° S 21:27:01 66° E 21:32:54 10° NNE
Cosmos 1174 3.8 21:23:50 10° WSW 21:27:29 62° NW 21:30:39 10° NE
USA 238 DEB 4.2 21:22:07 10° WSW 21:28:28 62° NNW 21:35:36 10° NE
USA 238 4.2 21:22:20 10° WSW 21:28:42 62° NNW 21:35:49 10° NE
Lacrosse 5 rocket 1.1 21:26:24 10° W 21:29:56 75° N 21:33:24 10° E
Cosmos 1300 Rocket 4.0 21:25:59 10° N 21:30:16 54° ENE 21:34:16 11° SSE
Cosmos 1943 Rocket 3.8 21:25:11 10° WSW 21:30:19 35° NW 21:35:26 10° NNE
CZ-2C R/B 4.4 21:25:45 10° N 21:30:21 54° WNW 21:34:56 10° SW
ARIANE 5 R/B 3.8 21:27:49 12° SSW 21:31:22 32° W 21:35:21 10° NNW
SL-8 R/B 4.3 21:29:43 10° WSW 21:33:57 33° S 21:38:13 10° ESE
CZ-2C R/B 3.1 21:28:54 10° NNE 21:34:23 77° ESE 21:38:51 14° S
Cosmos 1833 4.3 21:32:48 10° NW 21:38:24 66° WSW 21:43:41 12° SSE
Cosmos 2341 Rocket 4.1 21:32:19 10° NNW 21:38:33 73° W 21:44:01 14° S
CZ-2C R/B 2.7 21:34:58 14° S 21:39:30 72° WSW 21:44:51 10° NNW
BREEZE-M DEB (TANK) 3.9 21:29:00 10° W 21:39:59 40° SSW 21:43:55 10° SE
Cosmos 1733 Rocket 4.2 21:37:53 10° NNW 21:41:41 31° W 21:45:08 12° SSW
SAR-Lupe-2 4.2 21:42:23 16° SSW 21:44:33 37° W 21:47:35 10° NNW
ALOS 2 4.0 21:44:00 11° SSW 21:47:27 27° W 21:51:12 10° NW
Meteor 2-13 Rocket 4.5 21:43:01 13° S 21:48:29 88° ESE 21:54:38 10° NNE
Cosmos 2297 Rocket 3.5 21:44:10 10° NNW 21:49:33 42° NE 21:54:54 10° ESE
Cosmos 1707 Rocket 4.0 21:45:49 12° SSW 21:49:46 56° WNW 21:54:09 10° N
Cosmos 2228 Rocket 3.2 21:48:39 14° SSW 21:52:24 73° WNW 21:56:52 10° N
Cosmos 1703 Rocket 3.7 21:49:16 15° S 21:52:52 66° E 21:57:16 10° NNE
OPS 8737 4.1 21:49:40 10° NW 21:52:59 76° SW 21:56:04 10° SE
Landsat 5 3.9 21:49:50 10° NNE 21:53:23 42° E 21:56:17 14° SSE
Cosmos 1356 Rocket 3.8 21:49:53 10° NNW 21:53:47 49° W 21:56:55 15° S
Cosmos 2369 Rocket 2.2 21:50:39 11° SSW 21:56:02 83° ESE 22:01:41 10° NE
USA 290 3.9 21:54:41 10° NW 21:57:06 20° WSW 21:58:47 14° SW
Cosmos 2297 3.8 21:54:48 12° SSW 22:00:13 79° ESE 22:05:58 10° NE
Cosmos 1315 Rocket 4.0 21:57:22 10° NNW 22:00:39 28° W 22:03:25 13° SSW
Cosmos 1862 Rocket 4.4 21:57:21 10° SW 22:01:24 41° WNW 22:05:30 10° N
ARIANE 6 FM1 Upper Stage 2.6 21:59:00 10° SW 22:03:11 85° SE 22:07:17 10° ENE
USA 215 4.3 22:00:17 13° S 22:04:49 26° SW 22:10:07 10° WNW
Cosmos 1656 Rocket 4.5 22:01:35 10° WSW 22:06:58 51° NW 22:12:26 10° NNE
Cosmos 540 Rocket 3.7 22:03:39 10° NNW 22:08:45 70° ENE 22:13:49 10° SE
USA 276 3.0 22:14:01 10° WSW 22:16:14 22° S 22:18:36 10° SE
Okean 1-7 4.4 22:12:37 10° SW 22:16:23 30° WNW 22:20:10 10° N
USA 32 4.4 22:11:34 10° N 22:16:46 62° ENE 22:21:56 10° SSE
Cosmos 1908 Rocket 4.4 22:18:17 10° NNW 22:22:24 38° W 22:25:58 13° SSW
NOSS 3-1 (A) 3.3 22:18:34 13° SSW 22:22:48 53° SE 22:28:35 10° NE
NOSS 3-1 (C) 3.2 22:22:53 10° SW 22:27:50 82° NW 22:34:03 10° NE
Lacrosse 4 Rocket 3.0 22:27:00 10° WNW 22:29:59 19° WSW 22:32:24 12° SSW
Nadezhda 3 Rocket 4.2 22:24:15 12° S 22:30:08 73° E 22:36:26 10° NNE
Cosmos 1346 Rocket 3.6 22:27:05 11° SSE 22:30:19 38° E 22:33:44 10° NNE
DELTA 2 DEB (DPAF) 4.2 22:27:16 10° NNE 22:30:43 46° ESE 22:33:46 12° S
USA 308 2.5 22:28:12 10° WSW 22:31:39 62° S 22:35:52 10° E
Cosmos 2181 Rocket 4.2 22:28:01 12° SSW 22:33:58 70° WNW 22:40:25 10° N
Cosmos 1821 Rocket 4.5 22:28:28 10° NNW 22:34:15 47° W 22:39:42 12° SSW
ADEOS Rocket 4.1 22:30:24 10° NNE 22:36:05 35° E 22:41:18 10° SSE
Cosmos 1818 3.6 22:30:42 10° SW 22:36:08 83° SE 22:41:38 10° NE
NOSS 2-2 (E) 3.2 22:32:54 10° NW 22:36:13 82° NE 22:40:30 10° SE
USA 59 Rocket 1.9 22:37:30 10° WNW 22:39:52 21° N 22:42:15 10° NE
Cosmos 1782 Rocket 4.1 22:37:26 10° NNW 22:41:39 45° W 22:45:24 12° SSW
ATLAS 5 CENTAUR R/B 1.9 22:39:01 10° W 22:41:55 42° NNW 22:45:12 10° NE
COSMOS 2455 2.9 22:38:45 10° SW 22:44:47 86° SE 22:50:51 10° NE
Cosmos 304 Rocket 4.3 22:40:42 12° S 22:45:00 50° ESE 22:49:37 10° NE
Cosmos 1140 Rocket 3.5 22:43:28 12° SSW 22:48:15 82° ESE 22:53:24 10° NNE
ACS3 Solar Sail 2.0 22:45:31 10° N 22:51:03 57° WNW 22:56:41 10° SW
CZ-4C R/B 3.2 22:49:39 10° NNE 22:53:20 73° WNW 22:56:38 12° SSW
Cosmos 1763 Rocket 3.7 22:50:22 10° NW 22:55:18 53° WSW 23:00:11 10° S
Cosmos 371 Rocket 3.7 22:52:11 11° S 22:56:44 56° ESE 23:01:27 10° NE
SL-4 R/B 1.8 22:58:14 10° WSW 23:01:12 37° S 23:04:07 10° ESE
Cosmos 2227 Rocket 3.0 22:58:26 10° NNW 23:04:00 55° NE 23:09:33 10° SE
NOSS 2-2 (D) 3.5 23:02:31 10° WNW 23:05:53 48° SW 23:10:13 10° SSE
Lacrosse 5 rocket 0.9 23:02:59 10° WNW 23:06:25 53° SSW 23:09:44 10° SE
SJ 16-02 1.8 23:02:29 10° S 23:06:36 51° ESE 23:10:44 10° NE
PSLV R/B 3.8 23:03:32 10° NNE 23:07:25 81° ESE 23:11:14 10° SSW
Cosmos 1605 Rocket 4.1 23:01:06 10° N 23:07:27 81° ENE 23:13:38 10° SSE
CZ-2D R/B 4.5 23:04:42 10° NE 23:08:17 17° E 23:11:49 10° SE
NOSS 2-2 (C) 4.4 23:09:00 10° WNW 23:12:04 26° SW 23:15:55 10° S
CENTAUR R/B 3.3 23:05:50 10° NW 23:13:44 75° SW 23:23:02 10° SE
Cosmos 921 Rocket 3.0 23:10:28 10° SSW 23:14:38 78° WNW 23:18:48 10° NNE
Iridium 82 4.3 23:15:21 11° SSW 23:17:57 51° W 23:20:44 10° N
IDEFIX/ARIANE 42P 2.9 23:13:46 10° NNE 23:19:00 63° ESE 23:24:10 10° S
Cosmos 1455 Rocket 4.3 23:18:09 10° N 23:22:17 42° ENE 23:26:25 10° SE
FENGYUN 3A 4.2 23:18:16 10° NNE 23:23:33 55° E 23:28:47 10° S
Cosmos 2251 Rocket 4.4 23:19:29 10° S 23:24:32 43° ESE 23:29:36 10° NE
Cosmos 1378 Rocket 3.5 23:22:34 10° S 23:26:51 88° E 23:31:09 10° NNE
Cosmos 405 Rocket 2.3 23:24:48 10° S 23:27:44 65° ESE 23:30:42 10° NNE
Geosat 4.1 23:23:39 10° NNE 23:28:40 77° NW 23:33:40 10° SW
H-2A R/B 4.1 23:24:40 10° NE 23:28:43 22° E 23:32:40 10° SE
MSX 4.0 23:23:27 10° NNE 23:29:15 74° ESE 23:35:00 10° S
Aureole 3 4.5 23:23:36 10° S 23:30:02 88° ESE 23:35:43 10° NNE
SeaSat 1 3.6 23:28:11 10° ESE 23:32:53 48° NE 23:37:37 10° NNW
Cosmos 2297 Rocket 2.4 23:28:16 10° NW 23:33:48 57° WSW 23:39:20 10° SSE
ADEOS II 4.3 23:30:49 10° NE 23:34:38 20° E 23:38:25 10° SE
Cosmos 468 Rocket 4.2 23:30:19 10° NW 23:35:15 50° WSW 23:40:10 10° S
Cosmos 1782 3.4 23:32:39 10° N 23:36:06 49° ENE 23:39:31 10° SSE
BREEZE-M DEB (TANK) 4.1 23:21:31 10° WSW 23:36:25 51° S 23:40:30 10° ESE
Cosmos 1437 Rocket 3.8 23:34:57 10° N 23:38:14 39° ENE 23:41:28 10° SE
NPP 3.9 23:34:21 10° NNE 23:39:46 70° ESE 23:45:08 10° S
Cosmos 2369 Rocket 3.7 23:35:41 10° W 23:40:40 32° NW 23:45:42 10° NNE
Meteor 1-11 4.4 23:36:18 10° SSW 23:41:56 74° WNW 23:47:43 10° NNE
ARIANE 6 FM1 Upper Stage 4.0 23:38:35 10° W 23:42:29 39° NNW 23:46:20 10° ENE
Meteor 2-1 Rocket 4.4 23:37:35 10° NNW 23:43:17 64° W 23:49:05 10° S
Cosmos 2084 Rocket 4.5 23:40:06 10° S 23:43:41 31° SE 23:47:19 10° ENE
